Location: Molino di Ancona
(43.6167°N, 13.3667°E)
Time: 21:01:44
(UTC+00:00)

FALCON 9 R/B - Pass Details

Date: 15 December 2019
Orbit: 286 x 10160 km, 34.5° (Epoch: 18 January)

Event Time Altitude Azimuth Distance (km) Brightness Sun altitude
Exits shadow 03:10:23 44° 169° (S) 1,700 3.7 -35.6°
Maximum altitude 03:10:45 44° 162° (SSE) 1,757 3.8 -35.5°
Drops below altitude 10° 03:25:49 10° 98° (E) 6,799 7.7 -32.8°
Sets 03:35:26 0° 95° (E) 9,709 8.8 -31.1°
